Location: Borea
(45.6167°N, 23.0167°E)
Time: 02:28:04
(UTC+00:00)

OPS 8068 - Pass Details

Date: 21 February 2024
Orbit: 631 x 963 km, 98.3° (Epoch: 13 April)

Event Time Altitude Azimuth Distance (km) Brightness Sun altitude
Rises 17:29:00 0° 1° (N) 3,233 ? -15.8°
Reaches altitude 10° 17:31:38 10° 347° (NNW) 2,359 ? -16.3°
Maximum altitude 17:35:40 23° 297° (WNW) 1,692 ? -17.0°
Drops below altitude 10° 17:39:56 10° 247° (WSW) 2,516 ? -17.7°
Sets 17:42:52 0° 233° (SW) 3,502 ? -18.2°
